Molniya-3

operational
NORAD ID: 11896 Int'l Des: 1980-063 Owner: NPOPM/MSVYAZ Country: SU
MEOELLIPTICALHEO_ELLIPTICALSEMI_SYNCMOLNIYA

关于 Molniya-3

正在加载描述...

实时位置

正在加载3D地球...

即将过境

高度历史

Altitude vs Time

uPlot chart will show altitude changes over time

两行轨道根数

1 11896U 80063A 26071.68891939 .00000105 00000-0 -50627-2 0 9990
2 11896 63.8167 303.2781 7236013 277.4722 12.8314 2.00673747334460
Epoch: Mar 12, 2026 • Age: 47 hours

当前状态

高度 37376.8 km
速度 1.79 km/s
星下点 58.52°N, 94.21°W
发射日期 Jul 18, 1980
运行时间 45.6 years
类型 other

技术详情

分类 Payload
质量 1750.00 kg
干质量 1700.00 kg
总质量 1750.00 kg
长度 3.60 m
直径 1.60 m
跨度 8.10 m
形状 Cyl + 6 Pan
制造商 NPOPM
平台类型 Molniya-3
阶段状态 In Orbit
所有者/国家 NPOPM/MSVYAZ/SU

大型星座

Loading constellations...